Погода в Надеждине

Россия / Владимирская область     55°56′41″N   41°54′06″E
темп.,
°C
ветер,
м/с
пор.,
м/с
влажн.,
%
обл.,
%
осадки,
мм/ч
давл.,
гПа
погр.,
м
25 июля, вс
вс2500:00+14ссв1160100 0.0 101712
03:00+14зсз1158100 0.0 101815
06:00+13зсз2364100 0.0 101989
09:00+18з23465 0.0 1020826
12:00+21сз243258 0.0 10202577
15:00+21зсз543425 0.0 10202059
18:00+21зсз23438 0.0 1020685
21:00+16юз225593 0.0 102124
26 июля, пн
пн2600:00+16зюз235786 0.0 102255
03:00+15зюз236485 0.0 102269
06:00+15зсз246499 0.0 1023117
09:00+21з344677 0.0 1022621
12:00+23з463739 0.0 10222126
15:00+23з453971 0.0 10211713
18:00+22зсз36457 0.0 1021521
21:00+19з2256100 0.0 102125
27 июля, вт
вт2700:00+15з336791 0.0 102150
03:00+17з386064 0.0 1021177
06:00+17зсз27725 0.0 1021195
09:00+23ссз34494 0.0 1021665
12:00+26ссз353762 0.0 10202532
15:00+26ссз354160 0.1 10191686
18:00+24сз244961 0.0 1018666
21:00+18всв258051 0.0 1019172
28 июля, ср
ср2800:00+15ююз229259 0.7 101940
03:00+14з119011 0.8 101810
06:00+17ююв11845 0.1 101732
09:00+22ююз11615 0.1 1016501
12:00+27юз34420 0.0 10151498
15:00+28зюз4537100 0.0 10122540
18:00+23ю2259100 0.2 101145
21:00+18сз2286100 1.1 101129
29 июля, чт
чт2900:00+17зсз2795100 1.7 1011202
03:00+16юв2898100 7.4 1009362
06:00+16юв3897100 2.1 1007375
09:00+17юв4796100 3.3 1006460
12:00+19юз2389100 0.1 1005494
15:00+18з269546 1.6 1005359
18:00+20з489263 1.6 1004812
21:00+18з38976 2.4 1005263